Location: Taaricht
(32.5378°N, 5.4251°W)
Time: 11:36:39
(UTC+00:00)

Cosmos 2218 Rocket - Pass Details

Date: 09 April 2020
Orbit: 957 x 1005 km, 82.9° (Epoch: 05 June)

Event Time Altitude Azimuth Distance (km) Brightness Sun altitude
Rises 20:58:54 0° 357° (N) 3,669 7.4 -26.7°
Reaches altitude 10° 21:01:26 10° 1° (N) 2,725 6.7 -27.2°
Enters shadow 21:07:10 63° 58° (ENE) 1,087 4.0 -28.2°
